User: anonymous   Login
Location: G�ppingen
(48.7089°N, 9.6563°E)
Time: 15:40:18
(UTC+02:00)
Language:

NOAA 19 - Orbit

View from above orbital plane
View from above orbital plane
View from above satellite
View from above satellite

Ground track
Ground track

The orbit data is extracted from the following two-line orbital elements,

1 33591U 09005A   19291.89161018 -.00000016 +00000-0 +16517-4 0  9993
2 33591 099.1889 286.0219 0014598 039.0395 321.1826 14.12380042550896
Epoch (UTC): 18 October 2019 21:23:55
Eccentricity: 0.0014598
inclination: 99.1889°
perigee height: 840 km
apogee height: 862 km
right ascension of ascending node: 286.0219°
argument of perigee: 39.0395°
revolutions per day: 14.12380042
mean anomaly at epoch: 321.1826°
orbit number at epoch: 55089

The dashed part of the orbit path shows where the satellite is in the earth's shadow,  

DLR